Weather History for Alexandria, LA

Change the Weather History Date:

Wednesday, January 25, 2012

  Actual Average Record
Temperature  
Mean Temperature 65 °F 49 °F  
Max Temperature 75 °F 60 °F 81 °F (1950)
Min Temperature 54 °F 38 °F 11 °F (1963)
Degree Days  
Heating Degree Days 0 16  
Month to date heating degree days 256 400  
Since 1 July heating degree days 1068 1189  
Growing Degree Days 15 (Base 50)    
Moisture  
Dew Point 59 °F    
Average Humidity 83    
Maximum Humidity 97    
Minimum Humidity 68    
Precipitation  
Precipitation 1.82 in 0.18 in 3.45 in (1990)
Month to date precipitation 5.21 4.01  
Year to date precipitation 5.21 4.01  
Snow  
Snow 0.00 in - T in (1948)
Month to date snowfall 0.0  
Since 1 July snowfall 0.0  
Snow Depth 0.00 in    
Sea Level Pressure  
Sea Level Pressure 29.89 in    
Wind  
Wind Speed 12 mph (SE)    
Max Wind Speed 32 mph    
Max Gust Speed 43 mph    
Visibility 6 miles    
Events Rain , Thunderstorm    
T = Trace of Precipitation, MM = Missing Value Source: NWS Daily Summary

Daily Weather History Graph

Daily Weather History Graph

Search for Another Location

Airport:

Trip Planner

Search our weather history database for the weather conditions in past years. The results will help you decide how hot, cold, wet, or windy it might be!

Date:

Astronomy

Jan. 25, 2012 Rise Set
Actual Time 7:06 AM CST 5:38 PM CST
Civil Twilight 6:40 AM CST 6:04 PM CST
Nautical Twilight 6:11 AM CST 6:33 PM CST
Astronomical Twilight 5:42 AM CST 7:02 PM CST
Moon 8:19 AM CST (1/25) 8:17 PM CST (1/25)
Length of Visible Light 11h 23m
Length of Day
10h 31m
Waxing Crescent, 7% of the Moon is Illuminated
Jan 25
Waxing Crescent
Jan 30
First Quarter
Feb 7
Full
Feb 14
Last Quarter
Feb 21
New

Hourly Weather History & Observations

Time (CST) Temp. Dew Point Humidity Pressure Visibility Wind Dir Wind Speed Gust Speed Precip Events Conditions
12:02 AM 55.4 °F 51.8 °F 88% 30.02 in 10.0 mi SE 8.1 mph - N/A   Scattered Clouds
12:19 AM 55.4 °F 51.8 °F 88% 30.01 in 10.0 mi ESE 10.4 mph - N/A   Mostly Cloudy
12:53 AM 55.9 °F 51.1 °F 84% 29.99 in 10.0 mi ESE 15.0 mph - N/A   Overcast
1:53 AM 57.0 °F 53.1 °F 87% 29.99 in 10.0 mi SE 12.7 mph - N/A   Overcast
2:13 AM 55.4 °F 53.6 °F 94% 29.97 in 10.0 mi SE 11.5 mph - N/A   Scattered Clouds
2:36 AM 57.2 °F 53.6 °F 88% 29.97 in 9.0 mi SE 9.2 mph - N/A   Mostly Cloudy
2:53 AM 57.9 °F 55.0 °F 90% 29.98 in 9.0 mi SE 11.5 mph - N/A   Overcast
3:46 AM 59.0 °F 55.4 °F 88% 29.95 in 9.0 mi SE 15.0 mph - N/A   Overcast
3:53 AM 59.0 °F 55.9 °F 90% 29.96 in 9.0 mi SE 15.0 mph - N/A   Overcast
4:11 AM 59.0 °F 55.4 °F 88% 29.93 in 8.0 mi SE 12.7 mph - N/A   Overcast
4:27 AM 59.0 °F 55.4 °F 88% 29.93 in 8.0 mi SE 10.4 mph - N/A   Overcast
4:43 AM 59.0 °F 57.2 °F 94% 29.93 in 8.0 mi ESE 12.7 mph - N/A   Overcast
4:53 AM 59.0 °F 57.0 °F 93% 29.94 in 8.0 mi SE 12.7 mph - N/A   Overcast
5:53 AM 61.0 °F 59.0 °F 93% 29.91 in 6.0 mi SE 18.4 mph - N/A   Overcast
6:53 AM 61.0 °F 59.0 °F 93% 29.92 in 4.0 mi SE 16.1 mph - N/A   Overcast
7:41 AM 60.8 °F 60.8 °F 100% 29.90 in 1.8 mi SE 17.3 mph - N/A   Overcast
7:53 AM 62.1 °F 60.1 °F 93% 29.92 in 1.8 mi SE 16.1 mph - N/A   Overcast
8:10 AM 62.6 °F 60.8 °F 94% 29.92 in 2.0 mi SSE 13.8 mph - N/A   Overcast
8:31 AM 62.6 °F 60.8 °F 94% 29.93 in 3.0 mi SE 12.7 mph - N/A   Overcast
8:53 AM 64.0 °F 62.1 °F 93% 29.94 in 4.0 mi SE 13.8 mph - N/A   Overcast
9:53 AM 66.0 °F 63.0 °F 90% 29.95 in 6.0 mi SE 15.0 mph - 0.00 in   Overcast
10:00 AM 66.2 °F 62.6 °F 88% 29.94 in 6.0 mi SE 12.7 mph - N/A   Overcast
10:53 AM 69.1 °F 64.0 °F 84% 29.94 in 8.0 mi SE 13.8 mph - N/A   Overcast
11:28 AM 73.4 °F 64.4 °F 73% 29.89 in 10.0 mi SSE 19.6 mph 26.5 mph N/A   Mostly Cloudy
11:53 AM 73.9 °F 64.0 °F 71% 29.88 in 10.0 mi SSE 21.9 mph 29.9 mph N/A   Mostly Cloudy
12:00 PM 75.2 °F 64.4 °F 69% 29.86 in 10.0 mi SSE 20.7 mph 28.8 mph N/A   Mostly Cloudy
12:53 PM 73.4 °F 62.6 °F 69% 29.82 in 10.0 mi SSE 17.3 mph 25.3 mph N/A   Overcast
1:11 PM 73.4 °F 64.4 °F 73% 29.82 in 10.0 mi SSE 17.3 mph 25.3 mph N/A   Overcast
1:53 PM 75.0 °F 66.0 °F 73% 29.79 in 10.0 mi SSE 13.8 mph 23.0 mph 0.00 in   Mostly Cloudy
2:53 PM 72.0 °F 66.9 °F 84% 29.78 in 7.0 mi SSE 15.0 mph 24.2 mph 0.00 in Rain Light Rain
3:07 PM 71.6 °F 66.2 °F 83% 29.76 in 9.0 mi SSE 18.4 mph 23.0 mph 0.00 in Thunderstorm Overcast
3:30 PM 60.8 °F 57.2 °F 88% 29.82 in 1.0 mi WNW 20.7 mph 34.5 mph 0.21 in Rain , Thunderstorm Heavy Thunderstorms and Rain
3:53 PM 60.8 °F 57.2 °F 88% 29.84 in 1.0 mi NNW 9.2 mph - N/A Rain , Thunderstorm Thunderstorms and Rain
3:55 PM 60.8 °F 57.2 °F 88% 29.83 in 4.0 mi NNW 8.1 mph - 0.00 in Rain , Thunderstorm Thunderstorms and Rain
4:20 PM 60.8 °F 59.0 °F 94% 29.87 in 2.0 mi West 3.5 mph - 0.12 in Rain , Thunderstorm Heavy Rain
4:31 PM 60.8 °F 59.0 °F 94% 29.87 in 2.0 mi SE 3.5 mph - 0.18 in Rain Heavy Rain
4:44 PM 60.8 °F 59.0 °F 94% 29.86 in 2.0 mi Calm Calm - 0.26 in Rain , Thunderstorm Heavy Rain
4:53 PM 59.0 °F 59.0 °F 100% 29.87 in 2.0 mi Calm Calm - N/A Rain , Thunderstorm Heavy Rain
5:33 PM 60.8 °F 59.0 °F 94% 29.88 in 4.0 mi Calm Calm - 0.19 in Rain , Thunderstorm Thunderstorms and Rain
5:53 PM 60.8 °F 59.0 °F 94% 29.86 in 4.0 mi East 3.5 mph - N/A Rain , Thunderstorm Rain
6:08 PM 60.8 °F 59.0 °F 94% 29.87 in 4.0 mi SE 4.6 mph - 0.03 in Rain , Thunderstorm Rain
6:53 PM 60.1 °F 59.0 °F 96% 29.87 in 4.0 mi East 11.5 mph - 0.22 in Rain , Thunderstorm Heavy Thunderstorms and Rain
7:15 PM 60.8 °F 59.0 °F 94% 29.88 in 2.5 mi ESE 9.2 mph - N/A Rain , Thunderstorm Heavy Thunderstorms and Rain
7:22 PM 60.8 °F 59.0 °F 94% 29.86 in 4.0 mi East 10.4 mph - 0.14 in Rain , Thunderstorm Thunderstorms and Rain
7:46 PM 60.8 °F 59.0 °F 94% 29.83 in 4.0 mi East 13.8 mph - 0.21 in Rain Heavy Rain
7:53 PM 60.1 °F 59.0 °F 96% 29.84 in 5.0 mi East 10.4 mph - 0.23 in Rain Rain
8:02 PM 60.8 °F 59.0 °F 94% 29.84 in 7.0 mi East 12.7 mph - 0.02 in Rain , Thunderstorm Rain
8:24 PM 60.8 °F 59.0 °F 94% 29.84 in 8.0 mi ESE 15.0 mph - 0.06 in Rain Rain
8:40 PM 60.8 °F 59.0 °F 94% 29.86 in 6.0 mi SE 12.7 mph - 0.09 in Rain Rain
8:53 PM 60.8 °F 59.0 °F 94% 29.82 in 4.0 mi East 19.6 mph 23.0 mph N/A Rain , Thunderstorm Heavy Rain
9:02 PM 60.8 °F 59.0 °F 94% 29.80 in 5.0 mi ESE 11.5 mph 28.8 mph 0.02 in Rain Rain
9:15 PM 60.8 °F 59.0 °F 94% 29.80 in 10.0 mi East 9.2 mph - 0.02 in Rain Light Rain
9:53 PM 61.0 °F 59.0 °F 93% 29.88 in 10.0 mi SSE 5.8 mph - 0.04 in Rain Light Rain
10:00 PM 60.8 °F 59.0 °F 94% 29.87 in 10.0 mi SE 9.2 mph - 0.00 in   Overcast
10:25 PM 60.8 °F 60.8 °F 100% 29.86 in 8.0 mi South 4.6 mph - 0.00 in Rain Light Rain
10:53 PM 61.0 °F 60.1 °F 97% 29.87 in 10.0 mi SSE 4.6 mph - 0.00 in   Overcast
11:53 PM 62.1 °F 60.1 °F 93% 29.83 in 10.0 mi SSE 4.6 mph - 0.00 in   Overcast